User: anonymous   Login
Location: Unspecified
(0.0000°N, 0.0000°E)
Time: 07:55:11
(UTC+00:00)
Language:

MERIDIAN 6 - Orbit

View from above orbital plane
View from above orbital plane
View from above satellite
View from above satellite

Ground track
Ground track

The orbit data is extracted from the following two-line orbital elements,

1 38995U 12063A   17142.59048025 -.00000069 +00000-0 +10000-3 0  9994
2 38995 065.3177 337.9574 6925858 283.1413 013.1733 02.00598128033119
Epoch (UTC): 22 May 2017 14:10:17
Eccentricity: 0.6925858
inclination: 65.3177°
perigee height: 1786 km
apogee height: 38572 km
right ascension of ascending node: 337.9574°
argument of perigee: 283.1413°
revolutions per day: 2.00598128
mean anomaly at epoch: 13.1733°
orbit number at epoch: 3311

The dashed part of the orbit path shows where the satellite is in the earth's shadow,  

DLR